When you browse on this site, cookies collect data to enhance your experience and personalize the content and advertising you see.
Visit our Privacy Policy to learn more. By continuing to use the site, you agree to this use of cookies and data.
EN

Hourly Weather Sheshminskaya Krepost

Today, 9 July, Thursday

Time Temperature Precipitation Wind Pressure Humidity
00:00 +24°C° 0 mm 3 mps 752 mmHg 84%
01:00 +24°C° 0 mm 3 mps 752 mmHg 84%
02:00 +22°C° 0 mm 3 mps 752 mmHg 84%
03:00 +22°C° 0 mm 3 mps 752 mmHg 82%
04:00 +24°C° 0 mm 2 mps 752 mmHg 81%
05:00 +25°C° 0 mm 2 mps 752 mmHg 79%
06:00 +26°C° 0 mm 2 mps 753 mmHg 78%
07:00 +27°C° 0 mm 3 mps 752 mmHg 75%
08:00 +28°C° 0 mm 3 mps 752 mmHg 72%
09:00 +30°C° 0 mm 4 mps 752 mmHg 69%
10:00 +30°C° 0 mm 4 mps 752 mmHg 67%
11:00 +32°C° 0 mm 4 mps 752 mmHg 64%
12:00 +33°C° 0 mm 4 mps 752 mmHg 61%
13:00 +33°C° 0.1 mm 4 mps 752 mmHg 61%
14:00 +33°C° 0.1 mm 3 mps 752 mmHg 60%
15:00 +33°C° 0.1 mm 3 mps 752 mmHg 59%
16:00 +31°C° 0 mm 3 mps 752 mmHg 64%
17:00 +30°C° 0 mm 3 mps 751 mmHg 69%
18:00 +30°C° 0 mm 2 mps 751 mmHg 74%
19:00 +28°C° 0 mm 2 mps 751 mmHg 76%
20:00 +27°C° 0 mm 2 mps 751 mmHg 78%
21:00 +25°C° 0 mm 2 mps 751 mmHg 80%
22:00 +25°C° 0 mm 2 mps 751 mmHg 80%
23:00 +24°C° 0 mm 2 mps 751 mmHg 81%

Tomorrow, 10 July, Friday

Time Temperature Precipitation Wind Pressure Humidity
00:00 +24°C° 0 mm 2 mps 751 mmHg 81%
01:00 +23°C° 0 mm 2 mps 751 mmHg 81%
02:00 +23°C° 0 mm 2 mps 751 mmHg 81%
03:00 +23°C° 0 mm 2 mps 751 mmHg 81%
04:00 +23°C° 0 mm 2 mps 751 mmHg 80%
05:00 +24°C° 0 mm 2 mps 751 mmHg 78%
06:00 +25°C° 0 mm 2 mps 752 mmHg 77%
07:00 +27°C° 0 mm 3 mps 752 mmHg 74%
08:00 +28°C° 0 mm 3 mps 752 mmHg 71%
09:00 +29°C° 0 mm 4 mps 752 mmHg 68%
10:00 +30°C° 0 mm 4 mps 752 mmHg 65%
11:00 +32°C° 0 mm 4 mps 752 mmHg 62%
12:00 +33°C° 0 mm 4 mps 752 mmHg 59%
13:00 +33°C° 0.2 mm 4 mps 752 mmHg 60%
14:00 +31°C° 0.2 mm 3 mps 752 mmHg 61%
15:00 +31°C° 0.2 mm 3 mps 752 mmHg 62%
16:00 +30°C° 0.6 mm 3 mps 752 mmHg 70%
17:00 +28°C° 0.6 mm 3 mps 752 mmHg 78%
18:00 +26°C° 0.6 mm 4 mps 752 mmHg 86%
19:00 +25°C° 0 mm 3 mps 753 mmHg 88%
20:00 +24°C° 0 mm 3 mps 753 mmHg 91%
21:00 +23°C° 0 mm 2 mps 753 mmHg 94%
22:00 +21°C° 0.5 mm 2 mps 753 mmHg 95%
23:00 +20°C° 0.5 mm 2 mps 753 mmHg 96%

Day after tomorrow, 11 July, Saturday

Time Temperature Precipitation Wind Pressure Humidity
00:00 +19°C° 0.5 mm 2 mps 754 mmHg 97%
01:00 +19°C° 0.3 mm 2 mps 754 mmHg 97%
02:00 +18°C° 0.3 mm 2 mps 754 mmHg 97%
03:00 +18°C° 0.3 mm 2 mps 755 mmHg 97%
04:00 +18°C° 0 mm 2 mps 755 mmHg 96%
05:00 +19°C° 0 mm 3 mps 755 mmHg 95%
06:00 +19°C° 0 mm 3 mps 755 mmHg 93%
07:00 +20°C° 0 mm 3 mps 755 mmHg 87%
08:00 +22°C° 0 mm 3 mps 755 mmHg 81%
09:00 +24°C° 0 mm 3 mps 756 mmHg 75%
10:00 +25°C° 0 mm 3 mps 756 mmHg 72%
11:00 +25°C° 0 mm 4 mps 756 mmHg 68%
12:00 +26°C° 0 mm 4 mps 756 mmHg 64%
13:00 +26°C° 0 mm 4 mps 756 mmHg 64%
14:00 +26°C° 0 mm 4 mps 756 mmHg 63%
15:00 +26°C° 0 mm 4 mps 756 mmHg 62%
16:00 +26°C° 0 mm 3 mps 756 mmHg 66%
17:00 +25°C° 0 mm 3 mps 755 mmHg 70%
18:00 +25°C° 0 mm 2 mps 755 mmHg 73%
19:00 +23°C° 0 mm 2 mps 756 mmHg 77%
20:00 +21°C° 0 mm 1 mps 756 mmHg 81%
21:00 +19°C° 0 mm 1 mps 756 mmHg 85%
22:00 +19°C° 0 mm 1 mps 756 mmHg 85%
23:00 +18°C° 0 mm 1 mps 756 mmHg 86%

12 July, Sunday

Time Temperature Precipitation Wind Pressure Humidity
00:00 +18°C° 0 mm 1 mps 756 mmHg 86%
01:00 +16°C° 0 mm 0 mps 756 mmHg 87%
02:00 +15°C° 0 mm 0 mps 756 mmHg 87%
03:00 +15°C° 0 mm 0 mps 757 mmHg 88%
04:00 +16°C° 0 mm 0 mps 757 mmHg 85%
05:00 +18°C° 0 mm 0 mps 756 mmHg 82%
06:00 +19°C° 0 mm 0 mps 756 mmHg 79%
07:00 +21°C° 0 mm 0 mps 757 mmHg 74%
08:00 +22°C° 0 mm 0 mps 757 mmHg 69%
09:00 +24°C° 0 mm 0 mps 757 mmHg 63%
10:00 +25°C° 0 mm 0 mps 757 mmHg 60%
11:00 +25°C° 0 mm 0 mps 756 mmHg 56%
12:00 +26°C° 0 mm 0 mps 756 mmHg 52%
13:00 +26°C° 0 mm 0 mps 756 mmHg 51%
14:00 +26°C° 0 mm 0 mps 756 mmHg 51%
15:00 +28°C° 0 mm 1 mps 756 mmHg 50%
16:00 +28°C° 0 mm 1 mps 755 mmHg 55%
17:00 +27°C° 0 mm 1 mps 755 mmHg 60%
18:00 +27°C° 0 mm 1 mps 755 mmHg 65%
19:00 +25°C° 0 mm 1 mps 754 mmHg 69%
20:00 +23°C° 0 mm 1 mps 754 mmHg 73%
21:00 +21°C° 0 mm 1 mps 754 mmHg 77%
22:00 +21°C° 0 mm 1 mps 754 mmHg 78%
23:00 +20°C° 0 mm 1 mps 754 mmHg 80%

13 July, Monday

Time Temperature Precipitation Wind Pressure Humidity
00:00 +20°C° 0 mm 1 mps 754 mmHg 82%
01:00 +19°C° 0 mm 1 mps 754 mmHg 82%
02:00 +19°C° 0 mm 1 mps 754 mmHg 83%
03:00 +19°C° 0 mm 1 mps 754 mmHg 84%
04:00 +20°C° 0 mm 1 mps 754 mmHg 81%
05:00 +19°C° 0 mm 0 mps 754 mmHg 79%
06:00 +20°C° 0 mm 0 mps 754 mmHg 76%
07:00 +24°C° 0 mm 1 mps 754 mmHg 73%
08:00 +25°C° 0 mm 1 mps 753 mmHg 69%
09:00 +26°C° 0 mm 1 mps 753 mmHg 65%
10:00 +27°C° 0 mm 1 mps 753 mmHg 62%
11:00 +28°C° 0 mm 1 mps 753 mmHg 60%
12:00 +28°C° 0 mm 1 mps 753 mmHg 57%
13:00 +29°C° 0 mm 1 mps 753 mmHg 56%
14:00 +29°C° 0 mm 1 mps 753 mmHg 55%
15:00 +29°C° 0 mm 1 mps 752 mmHg 55%
16:00 +28°C° 0 mm 1 mps 752 mmHg 60%
17:00 +28°C° 0 mm 1 mps 752 mmHg 65%
18:00 +27°C° 0 mm 1 mps 752 mmHg 70%
19:00 +25°C° 0 mm 1 mps 752 mmHg 72%
20:00 +24°C° 0 mm 1 mps 752 mmHg 75%
21:00 +22°C° 0 mm 1 mps 752 mmHg 78%
22:00 +22°C° 0 mm 1 mps 752 mmHg 79%
23:00 +20°C° 0 mm 2 mps 752 mmHg 80%

14 July, Tuesday

Time Temperature Precipitation Wind Pressure Humidity
00:00 +20°C° 0 mm 2 mps 751 mmHg 82%
01:00 +20°C° 0 mm 2 mps 751 mmHg 83%
02:00 +19°C° 0 mm 2 mps 751 mmHg 85%
03:00 +20°C° 0 mm 1 mps 751 mmHg 87%
04:00 +20°C° 0 mm 2 mps 751 mmHg 86%
05:00 +21°C° 0 mm 2 mps 751 mmHg 84%
06:00 +23°C° 0 mm 2 mps 751 mmHg 83%
07:00 +24°C° 0 mm 2 mps 751 mmHg 79%
08:00 +26°C° 0 mm 2 mps 751 mmHg 76%
09:00 +27°C° 0 mm 3 mps 751 mmHg 73%
10:00 +28°C° 0 mm 3 mps 751 mmHg 69%
11:00 +29°C° 0 mm 2 mps 751 mmHg 65%
12:00 +30°C° 0 mm 2 mps 751 mmHg 61%
13:00 +30°C° 0 mm 2 mps 751 mmHg 62%
14:00 +30°C° 0 mm 2 mps 750 mmHg 62%
15:00 +30°C° 0 mm 2 mps 750 mmHg 63%
16:00 +30°C° 0 mm 3 mps 750 mmHg 67%
17:00 +29°C° 0 mm 3 mps 749 mmHg 72%
18:00 +28°C° 0 mm 4 mps 749 mmHg 76%
19:00 +27°C° 0.9 mm 5 mps 749 mmHg 78%
20:00 +26°C° 0.9 mm 5 mps 749 mmHg 81%
21:00 +24°C° 0.9 mm 6 mps 749 mmHg 83%
22:00 +25°C° 0.1 mm 5 mps 749 mmHg 82%
23:00 +23°C° 0.1 mm 4 mps 748 mmHg 81%
Show more